Wind_Speed
27 27 26 25 25 25 26 27 26 26 27 27 27 27 28 29 30 31 32 33 33 34 34 35 35 35 36 36 36 36 37 37 37 37 37 38 38 39 39 39 39 39 39 39 39 39 39 39 39 39 38 38
30 30 30 29 29 29 29 29 29 29 30 30 30 29 29 30 31 32 33 33 34 35 36 36 37 37 37 38 38 38 39 39 39 39 39 39 39 40 40 40 41 41 41 41 41 41 41 41 40 40 40 39
33 33 32 32 33 33 33 32 32 32 32 33 33 33 33 33 33 34 35 35 36 36 37 38 39 39 39 40 40 40 41 41 41 40 40 40 40 40 41 41 42 42 42 42 42 42 42 41 41 41 40 40
35 34 34 35 36 36 36 36 35 35 35 36 36 36 35 35 36 36 37 37 37 38 38 38 39 40 40 40 41 42 42 42 42 42 41 41 41 41 42 43 43 43 44 43 43 43 43 42 42 42 42 41
36 36 36 37 37 38 38 39 39 39 39 39 39 39 38 38 38 38 38 39 39 39 39 38 39 39 40 41 41 42 43 43 44 43 43 43 43 43 43 44 44 44 44 44 44 43 43 43 43 43 43 43
37 37 37 38 39 40 41 40 41 41 41 41 41 42 41 40 40 41 40 40 40 40 40 39 39 40 40 41 41 42 43 44 45 45 45 45 45 45 45 45 45 45 45 44 44 44 44 44 44 45 45 45
38 37 37 37 39 40 41 42 42 42 43 43 43 43 42 40 40 41 40 40 40 40 40 40 41 41 41 42 42 43 44 45 46 46 47 47 46 46 46 46 46 46 45 45 45 45 46 46 46 46 47 47
38 39 39 38 39 39 40 41 41 42 43 43 43 42 41 40 40 40 40 40 41 41 42 42 43 43 44 44 45 45 46 46 47 48 48 48 47 47 47 47 47 47 47 47 47 47 48 48 48 48 49 49
38 39 40 40 40 39 40 41 42 42 43 43 44 43 43 42 41 42 42 42 43 43 44 45 45 45 46 46 47 47 47 48 48 48 48 48 48 48 48 48 49 49 49 49 49 50 50 50 50 50 50 50
39 39 41 41 41 41 41 42 43 44 45 46 46 46 46 45 45 45 45 45 45 46 46 47 47 47 48 48 48 48 49 49 49 49 49 50 50 50 50 50 51 51 51 51 51 52 51 51 52 52 52 52
43 42 42 43 43 43 43 44 45 45 46 47 47 48 48 47 47 47 47 47 47 48 48 48 48 49 49 49 49 50 50 50 50 51 51 51 52 52 52 52 52 53 53 53 53 53 53 53 53 53 53 53
47 47 46 46 45 45 45 46 46 47 47 48 49 49 49 49 49 49 49 49 49 49 49 49 50 50 50 51 51 51 51 52 52 52 53 53 53 53 53 53 53 54 54 54 54 54 54 54 54 54 54 54
49 49 49 47 47 47 47 47 48 48 49 49 50 50 50 50 50 50 50 50 50 51 51 51 51 51 51 52 52 52 53 53 53 53 54 54 54 54 54 54 54 54 54 54 55 55 55 55 55 55 55 55
48 49 49 48 47 47 48 48 49 49 50 50 51 51 52 51 51 51 51 51 52 52 52 52 52 52 52 52 53 53 53 54 54 54 54 54 54 54 55 55 55 55 55 55 55 56 56 56 56 56 56 56
45 46 46 47 47 47 48 49 50 50 51 51 52 52 53 53 52 52 52 52 53 53 53 53 53 53 53 53 53 53 54 54 54 54 54 55 55 55 55 55 56 56 56 56 56 56 56 56 56 55 55 55
42 43 44 45 45 46 48 49 50 50 51 52 53 53 54 53 53 52 53 53 53 53 53 53 53 53 53 53 53 54 54 54 54 54 54 55 55 55 55 55 55 55 56 56 55 55 55 55 55 55 55 55
42 43 44 44 45 45 46 47 48 49 50 51 52 53 53 52 52 52 52 52 52 52 52 52 53 53 53 53 54 54 54 54 54 54 54 54 54 55 55 55 55 54 54 54 54 54 54 54 54 54 54 54
41 43 43 44 44 45 46 46 47 48 50 51 51 51 52 52 52 52 52 52 52 52 52 52 53 53 53 53 54 54 54 54 53 53 53 54 54 54 54 54 53 53 53 52 52 52 52 52 52 53 53 53
42 43 44 44 45 45 45 45 46 48 49 50 50 51 51 52 52 52 52 52 52 52 52 53 53 53 53 53 53 53 52 52 52 52 53 53 53 53 53 53 52 52 51 51 50 50 51 51 52 52 53 53
42 43 44 45 45 46 46 46 47 48 49 49 50 50 51 51 52 52 52 52 52 52 52 52 52 52 51 51 50 50 49 50 50 51 51 52 52 52 52 52 51 51 50 50 50 51 52 52 53 53 53 54
40 41 42 44 45 46 47 47 47 48 48 49 49 50 50 51 51 51 51 51 51 51 51 50 50 49 49 48 47 47 47 48 49 50 50 51 52 52 52 52 51 50 50 50 51 52 53 53 53 53 54 54
40 41 42 43 44 44 45 45 45 45 45 46 47 48 48 49 49 49 50 50 49 49 48 48 47 47 46 46 46 46 47 48 49 50 51 52 52 53 52 51 50 49 49 50 52 53 53 53 54 54 55 55
42 43 44 44 44 44 44 43 44 44 44 45 47 47 48 48 48 49 50 50 49 49 48 47 47 46 46 46 47 47 47 48 49 51 52 53 53 52 51 50 49 49 50 52 53 54 54 54 54 55 55 55
44 45 44 44 45 44 44 44 45 45 46 47 48 48 48 48 49 50 50 50 50 49 48 47 46 46 46 46 46 46 47 48 49 51 53 53 52 51 50 50 50 51 53 54 55 55 55 55 55 55 54 54
43 44 45 45 45 45 45 46 46 46 46 47 47 48 48 48 49 49 49 49 48 48 47 46 46 46 46 46 46 47 48 49 51 53 54 54 53 52 51 52 53 53 54 54 55 55 55 54 54 53 53 52
42 43 44 45 45 46 47 47 48 48 47 48 48 49 48 48 48 47 47 47 46 46 46 46 47 47 47 48 48 49 51 52 54 55 56 56 54 53 53 53 53 53 53 54 54 54 54 53 52 51 51 50
41 42 43 44 45 46 47 47 48 48 48 48 48 48 48 47 47 46 46 45 45 46 47 47 48 48 49 50 51 52 53 55 56 57 57 56 54 53 52 52 52 53 53 54 54 53 52 51 50 49 48 47
40 42 43 44 45 45 46 46 46 46 46 46 47 46 46 46 46 45 45 46 47 48 48 49 49 50 51 52 53 54 55 56 57 56 56 54 53 52 51 51 52 52 52 52 51 51 49 49 48 47 47 48
41 42 43 44 45 45 45 44 44 44 44 44 45 45 45 45 46 47 47 48 49 50 51 51 52 52 53 54 54 54 54 55 55 54 54 52 51 51 51 51 51 50 50 49 50 50 49 48 48 48 49 50
41 42 43 45 46 46 46 46 45 44 44 44 44 45 46 47 48 49 50 50 51 51 52 52 52 52 52 53 53 53 53 53 53 53 52 51 51 50 51 50 50 49 50 50 50 50 50 50 50 50 50 51
39 41 42 44 45 46 47 47 47 47 47 46 46 46 47 48 49 49 50 50 50 51 51 51 51 51 51 51 51 51 52 52 52 52 52 52 52 52 52 51 51 51 51 51 51 51 51 51 51 51 52 52
Wind_Direction
240 242 243 242 242 243 242 240 242 245 245 245 244 242 242 243 243 243 243 245 246 247 248 249 249 250 250 251 252 252 252 253 253 254 255 257 257 257 258 258 258 258 258 259 259 260 260 260 260 260 259 258
242 243 244 245 245 245 246 245 246 248 249 251 252 251 250 249 248 248 248 248 249 250 250 251 251 251 251 252 252 253 253 254 254 255 256 257 258 258 258 258 258 258 259 259 260 260 261 260 260 260 259 258
246 246 245 246 246 246 246 246 246 246 248 251 253 253 253 252 251 251 250 251 251 251 251 251 251 252 252 252 252 253 253 254 254 255 256 257 258 258 258 258 259 259 259 260 260 261 261 260 260 259 258 258
251 251 249 248 247 246 246 246 246 247 248 250 252 252 253 253 253 253 253 253 253 253 252 251 251 252 252 253 253 254 253 253 254 255 256 257 258 259 259 259 259 259 260 260 260 261 261 260 260 259 259 258
254 253 252 251 250 248 247 248 248 249 249 250 252 252 253 255 256 256 255 255 255 255 253 252 252 252 253 254 255 255 255 254 254 255 257 258 260 260 260 260 260 259 259 259 260 260 260 260 259 259 259 259
256 254 253 252 252 252 251 250 250 250 251 251 252 253 254 255 256 256 256 256 256 256 255 255 255 254 254 254 255 255 255 255 255 256 258 260 261 261 261 260 260 259 259 259 259 260 260 260 260 260 260 260
258 257 256 254 254 253 252 251 251 251 252 252 253 253 253 254 254 254 254 254 255 255 255 256 256 256 256 256 256 257 257 256 256 257 259 260 261 261 260 260 260 259 259 259 259 259 260 260 260 260 261 261
256 257 257 256 255 254 253 253 252 252 252 253 253 253 252 252 252 251 251 252 253 254 256 257 258 258 258 258 258 259 259 258 258 259 259 260 260 260 259 259 259 259 259 259 260 260 260 260 260 261 261 261
254 255 257 257 255 254 253 253 253 252 252 253 253 253 252 252 252 252 252 252 254 256 257 258 259 259 259 259 259 259 259 258 258 259 259 259 259 259 259 259 259 260 260 260 260 261 261 261 261 261 261 261
255 254 255 255 254 253 252 252 253 253 254 254 254 255 255 255 255 255 255 256 257 258 259 259 259 259 260 259 259 259 258 258 258 258 258 259 259 259 260 260 260 261 261 261 261 262 262 262 262 262 262 262
256 255 255 254 253 252 252 252 254 255 256 257 257 257 257 257 257 257 257 258 258 259 259 259 260 260 260 260 259 259 259 259 259 259 259 259 260 260 260 261 261 262 262 262 263 263 263 263 263 263 263 263
256 256 256 255 253 252 252 253 255 257 259 260 260 260 260 259 259 259 259 259 259 259 260 260 260 260 260 260 259 259 259 259 260 260 260 260 261 261 261 262 262 263 263 263 264 264 264 264 264 264 264 264
255 256 256 255 253 253 253 254 256 258 259 260 261 261 260 260 260 260 260 260 260 260 260 260 260 260 260 260 260 260 260 260 260 261 261 261 262 262 263 263 263 263 264 264 264 265 265 265 265 264 264 264
253 253 253 253 253 253 254 255 256 258 258 259 260 260 260 260 260 260 260 260 260 261 261 261 261 261 261 261 261 261 261 261 261 261 262 262 263 263 264 264 264 264 265 265 265 265 265 265 265 265 265 264
254 254 254 254 253 254 255 256 257 258 258 258 259 259 259 259 259 259 260 260 260 261 261 261 262 262 262 262 262 262 262 262 262 263 263 263 264 264 264 265 265 265 265 265 265 265 265 265 265 265 265 264
257 257 256 256 256 255 256 256 257 258 259 259 259 260 260 260 260 260 260 260 261 261 261 262 262 263 263 263 263 263 263 263 263 263 263 264 264 264 264 265 265 265 265 265 265 265 265 264 264 264 264 264
257 258 257 257 257 257 257 257 258 259 259 260 261 261 262 262 262 262 261 261 262 262 262 262 262 262 262 263 263 263 263 264 264 264 264 264 264 264 264 264 264 264 264 264 263 263 263 263 263 263 263 263
262 261 261 261 260 260 260 260 260 260 261 261 262 262 263 263 263 263 263 263 263 263 263 263 263 263 263 263 263 263 264 264 264 265 265 264 264 264 264 264 263 263 262 262 262 262 262 262 263 263 263 263
265 264 264 263 263 263 262 261 261 261 261 262 262 262 263 263 263 264 264 264 264 264 264 264 264 264 263 263 263 263 263 263 263 264 264 264 263 263 263 262 262 262 261 261 262 262 262 263 263 263 264 264
264 264 264 263 263 263 262 262 261 261 261 262 263 263 264 264 265 265 265 265 264 264 264 264 263 263 263 263 262 262 262 262 262 262 262 262 261 261 261 261 261 261 262 262 263 263 263 263 264 264 264 264
262 262 262 261 261 261 261 261 261 261 262 262 263 263 263 264 264 264 264 264 263 262 262 261 261 261 261 261 261 261 261 261 261 261 260 260 260 261 261 261 262 262 263 263 264 263 263 263 264 264 264 264
261 260 259 259 259 259 260 260 260 261 261 261 261 260 260 261 261 261 261 261 261 260 260 260 261 261 261 262 262 262 261 261 260 260 260 260 260 260 261 262 263 263 264 263 263 263 263 263 264 264 264 265
261 260 260 260 260 260 260 260 260 259 259 259 259 258 258 258 259 259 259 260 260 261 261 262 262 262 263 262 262 262 261 260 260 259 259 259 259 260 261 262 263 264 263 263 263 263 264 264 264 265 265 266
263 263 263 262 262 262 261 260 260 259 259 259 259 259 259 259 259 259 260 261 261 262 262 263 263 263 263 262 262 261 260 259 259 259 259 259 260 261 262 263 263 264 264 264 264 264 265 265 266 266 267 267
264 264 264 264 263 263 262 262 262 261 261 261 261 260 260 260 260 260 261 261 261 262 262 262 262 262 262 261 260 259 259 258 258 258 259 259 261 262 263 264 264 264 264 264 265 265 265 266 266 267 267 267
263 263 264 264 264 263 263 262 262 262 262 262 262 262 262 262 262 262 262 262 262 262 262 261 260 260 259 258 257 257 257 257 257 258 260 261 262 263 264 264 264 264 264 264 265 265 265 266 266 266 266 267
263 263 263 263 263 263 263 263 263 263 263 264 264 265 266 265 265 265 264 263 262 261 260 259 258 257 256 255 255 255 256 257 258 260 261 262 263 263 264 264 264 264 264 264 265 265 265 265 265 265 266 265
262 262 262 263 263 264 264 265 265 266 266 267 267 267 267 267 266 265 263 261 260 259 258 257 256 255 255 255 255 256 257 258 260 261 262 263 263 263 263 263 263 263 264 264 264 264 264 264 264 264 264 264
260 261 262 263 263 264 264 264 265 265 266 266 266 265 265 264 262 260 259 258 257 257 256 256 255 255 256 256 257 258 259 260 261 262 263 264 263 263 262 262 262 263 263 263 264 264 264 264 264 264 264 264
260 260 260 261 262 263 263 263 263 263 262 262 261 260 259 259 259 258 258 258 258 258 258 258 258 258 258 259 260 260 261 261 262 263 263 263 262 262 261 261 262 263 263 264 264 265 264 264 264 264 265 266
260 260 260 260 261 261 261 261 261 261 260 259 259 258 257 258 258 258 258 258 258 258 259 259 259 259 259 260 260 260 260 261 261 262 262 262 261 262 262 262 263 263 264 264 265 266 265 265 265 266 267 268
Height
5768 5769 5769 5771 5772 5773 5774 5775 5776 5777 5778 5779 5780 5781 5783 5784 5786 5787 5788 5789 5790 5791 5792 5793 5795 5796 5797 5798 5799 5800 5801 5802 5802 5803 5804 5804 5805 5806 5807 5807 5808 5809 5809 5810 5811 5812 5812 5813 5814 5815 5816 5816
5766 5766 5767 5768 5769 5770 5771 5773 5774 5774 5775 5776 5777 5778 5779 5780 5782 5783 5784 5785 5786 5787 5788 5789 5791 5792 5793 5794 5795 5796 5797 5798 5798 5799 5800 5801 5801 5802 5803 5803 5804 5805 5805 5806 5807 5807 5808 5809 5810 5810 5811 5812
5762 5764 5765 5766 5767 5768 5769 5770 5771 5772 5772 5773 5774 5775 5776 5777 5778 5779 5780 5781 5782 5783 5784 5785 5786 5787 5789 5790 5791 5792 5793 5794 5794 5795 5796 5796 5797 5798 5798 5799 5800 5800 5801 5802 5802 5803 5804 5805 5805 5806 5807 5808
5760 5761 5762 5763 5763 5764 5765 5766 5768 5768 5769 5770 5771 5772 5773 5774 5774 5775 5776 5777 5778 5779 5780 5781 5782 5783 5784 5785 5786 5787 5788 5789 5790 5791 5791 5792 5793 5793 5794 5795 5795 5796 5797 5797 5798 5799 5799 5800 5801 5802 5802 5803
5756 5757 5759 5759 5760 5761 5762 5762 5763 5764 5765 5766 5767 5768 5769 5770 5771 5771 5772 5773 5774 5774 5776 5777 5778 5779 5780 5781 5782 5783 5784 5784 5785 5786 5787 5787 5788 5789 5789 5790 5791 5791 5792 5792 5793 5794 5794 5795 5796 5797 5798 5798
5752 5753 5755 5756 5756 5757 5758 5758 5759 5760 5761 5762 5763 5764 5765 5766 5767 5767 5768 5768 5769 5770 5771 5772 5773 5774 5775 5776 5777 5778 5779 5779 5780 5781 5782 5782 5783 5783 5784 5785 5785 5786 5787 5787 5788 5789 5790 5790 5791 5792 5793 5794
5748 5749 5750 5751 5752 5753 5753 5754 5755 5756 5757 5758 5759 5760 5761 5762 5763 5763 5764 5764 5765 5766 5767 5768 5769 5770 5771 5771 5772 5773 5774 5774 5775 5776 5776 5777 5777 5778 5779 5779 5780 5781 5782 5782 5783 5784 5784 5785 5786 5787 5787 5788
5744 5744 5745 5746 5747 5748 5749 5749 5750 5751 5752 5753 5754 5755 5757 5758 5758 5759 5759 5760 5761 5761 5762 5763 5764 5765 5766 5766 5767 5768 5768 5769 5770 5770 5771 5771 5772 5773 5773 5774 5775 5776 5776 5777 5778 5778 5779 5780 5781 5781 5782 5783
5741 5741 5741 5742 5743 5744 5744 5745 5746 5747 5748 5749 5749 5750 5752 5753 5754 5754 5755 5756 5756 5757 5758 5758 5759 5760 5760 5761 5762 5762 5763 5763 5764 5765 5765 5766 5767 5767 5768 5769 5769 5770 5771 5771 5772 5773 5773 5774 5775 5776 5776 5777
5736 5737 5737 5738 5739 5740 5740 5741 5741 5742 5743 5744 5745 5746 5747 5748 5749 5749 5750 5751 5752 5752 5753 5753 5754 5754 5755 5755 5756 5757 5758 5758 5759 5759 5760 5760 5761 5762 5762 5763 5763 5764 5765 5765 5766 5767 5768 5768 5769 5770 5770 5771
5731 5732 5732 5733 5734 5735 5735 5736 5737 5737 5738 5739 5740 5741 5742 5743 5743 5744 5745 5746 5746 5747 5748 5748 5749 5749 5750 5750 5751 5751 5752 5753 5753 5754 5754 5755 5755 5756 5756 5757 5758 5758 5759 5759 5760 5761 5761 5762 5763 5763 5764 5765
5726 5726 5727 5727 5728 5729 5730 5731 5732 5732 5733 5734 5735 5735 5737 5737 5738 5739 5739 5740 5741 5741 5742 5743 5743 5744 5744 5745 5745 5746 5746 5747 5748 5748 5749 5749 5750 5750 5751 5751 5752 5752 5753 5753 5754 5755 5755 5756 5757 5757 5758 5758
5722 5722 5722 5723 5723 5724 5725 5726 5726 5727 5728 5728 5729 5730 5731 5732 5732 5733 5734 5734 5735 5735 5736 5737 5737 5738 5738 5739 5739 5740 5740 5741 5742 5742 5743 5743 5744 5744 5745 5745 5746 5747 5747 5748 5748 5749 5749 5750 5750 5751 5751 5752
5717 5718 5718 5718 5719 5719 5720 5720 5721 5722 5723 5723 5723 5724 5725 5726 5726 5727 5728 5728 5729 5729 5730 5730 5731 5732 5732 5733 5733 5734 5734 5735 5735 5736 5737 5737 5738 5738 5739 5739 5740 5741 5741 5741 5742 5742 5743 5743 5744 5744 5745 5745
5713 5713 5714 5714 5714 5715 5715 5715 5716 5717 5717 5718 5718 5718 5719 5720 5720 5721 5721 5722 5722 5723 5723 5724 5724 5725 5726 5726 5727 5727 5728 5728 5729 5730 5730 5731 5731 5732 5733 5733 5734 5734 5735 5735 5735 5736 5736 5737 5737 5738 5738 5739
5708 5708 5708 5709 5710 5710 5710 5711 5711 5711 5712 5712 5712 5712 5712 5713 5714 5715 5715 5716 5716 5717 5717 5718 5718 5719 5719 5720 5720 5721 5721 5722 5723 5723 5724 5724 5725 5726 5726 5727 5727 5728 5728 5729 5729 5729 5730 5730 5731 5732 5732 5732
5703 5703 5703 5704 5704 5705 5705 5706 5706 5706 5706 5705 5706 5706 5707 5707 5708 5709 5709 5710 5710 5711 5711 5711 5712 5712 5713 5713 5714 5714 5715 5715 5716 5717 5717 5718 5719 5719 5720 5720 5721 5722 5722 5722 5723 5723 5724 5724 5725 5725 5726 5726
5698 5697 5698 5698 5698 5699 5700 5700 5700 5700 5700 5700 5700 5700 5701 5701 5702 5702 5703 5703 5704 5704 5705 5705 5705 5706 5706 5707 5707 5708 5708 5709 5709 5710 5710 5711 5712 5713 5713 5714 5714 5715 5715 5716 5716 5717 5718 5718 5719 5719 5720 5720
5692 5692 5692 5693 5693 5693 5694 5694 5694 5694 5694 5694 5694 5695 5695 5695 5695 5696 5696 5697 5698 5698 5698 5698 5698 5699 5700 5700 5701 5701 5702 5702 5703 5703 5704 5705 5705 5706 5707 5708 5708 5709 5709 5710 5711 5711 5712 5712 5713 5713 5714 5715
5687 5687 5687 5687 5687 5687 5688 5688 5689 5688 5688 5689 5689 5689 5689 5689 5690 5690 5690 5690 5691 5691 5691 5691 5692 5692 5693 5694 5694 5695 5696 5697 5697 5697 5698 5699 5699 5700 5701 5701 5702 5703 5703 5704 5705 5706 5706 5707 5707 5708 5708 5709
5682 5682 5681 5681 5681 5682 5682 5682 5683 5683 5683 5683 5684 5684 5683 5683 5683 5683 5683 5684 5684 5684 5684 5685 5685 5686 5687 5688 5689 5690 5690 5691 5691 5691 5692 5692 5693 5694 5694 5695 5696 5697 5698 5699 5699 5699 5700 5701 5701 5701 5702 5702
5676 5676 5676 5676 5676 5676 5677 5677 5677 5677 5678 5678 5678 5678 5677 5677 5677 5677 5677 5677 5678 5678 5678 5679 5680 5681 5682 5683 5684 5684 5684 5685 5685 5685 5685 5686 5686 5687 5688 5689 5690 5691 5692 5692 5692 5693 5694 5694 5695 5695 5695 5696
5670 5670 5670 5670 5671 5671 5672 5672 5672 5672 5672 5672 5671 5672 5671 5672 5672 5671 5671 5672 5672 5672 5673 5674 5675 5676 5677 5678 5678 5678 5678 5678 5678 5678 5679 5679 5680 5681 5683 5684 5684 5685 5685 5685 5685 5686 5687 5687 5688 5688 5689 5689
5664 5664 5665 5665 5665 5666 5666 5666 5665 5666 5666 5666 5666 5666 5666 5667 5666 5666 5666 5667 5667 5667 5668 5669 5670 5670 5671 5672 5672 5672 5671 5671 5671 5671 5672 5673 5674 5676 5677 5677 5678 5678 5678 5678 5679 5679 5680 5680 5681 5682 5682 5682
5659 5659 5658 5658 5659 5659 5659 5659 5659 5660 5660 5660 5660 5660 5660 5661 5660 5661 5661 5661 5662 5662 5663 5663 5664 5664 5665 5665 5665 5664 5664 5664 5664 5665 5665 5666 5668 5669 5670 5671 5671 5671 5672 5672 5672 5673 5674 5674 5675 5675 5675 5675
5653 5653 5652 5652 5653 5653 5652 5653 5653 5654 5654 5654 5654 5654 5654 5655 5655 5655 5656 5656 5656 5656 5657 5657 5657 5658 5658 5658 5658 5657 5657 5657 5658 5658 5659 5661 5662 5663 5664 5664 5664 5665 5665 5665 5665 5666 5667 5668 5668 5669 5669 5669
5647 5647 5646 5646 5646 5646 5646 5647 5647 5647 5648 5648 5648 5649 5649 5649 5649 5649 5649 5649 5649 5649 5650 5650 5650 5650 5650 5650 5651 5651 5651 5651 5652 5652 5653 5655 5656 5657 5657 5657 5657 5658 5658 5658 5659 5660 5661 5662 5662 5663 5663 5662
5642 5641 5640 5640 5640 5640 5640 5641 5641 5641 5642 5643 5643 5643 5643 5643 5642 5642 5642 5642 5642 5642 5642 5642 5642 5642 5642 5643 5644 5644 5645 5645 5646 5646 5647 5648 5649 5650 5651 5650 5650 5651 5651 5652 5652 5653 5655 5656 5656 5658 5657 5655
5635 5634 5634 5634 5634 5634 5634 5635 5635 5635 5636 5636 5636 5636 5635 5635 5634 5634 5634 5634 5634 5634 5635 5635 5635 5635 5636 5636 5637 5638 5639 5639 5639 5640 5641 5642 5642 5643 5643 5643 5644 5644 5645 5646 5645 5647 5649 5649 5650 5651 5649 5648
5629 5628 5628 5628 5628 5628 5628 5628 5628 5629 5628 5628 5628 5628 5627 5627 5626 5627 5627 5627 5628 5628 5628 5629 5629 5629 5630 5631 5631 5632 5633 5633 5633 5634 5634 5634 5635 5636 5636 5636 5637 5638 5638 5638 5639 5640 5641 5642 5643 5643 5642 5642
5622 5622 5622 5621 5621 5621 5621 5621 5622 5621 5620 5620 5620 5619 5620 5620 5620 5620 5620 5621 5621 5622 5622 5623 5623 5624 5624 5624 5625 5625 5626 5627 5627 5626 5627 5627 5628 5628 5628 5630 5631 5631 5631 5631 5632 5632 5633 5634 5635 5636 5635 5635